Location: Newark
(54.6833°N, 25.2833°E)
Time: 16:22:30
(UTC+00:00)

Tiros 1 despin weight - Pass Details

Date: 19 November 2019
Orbit: 594 x 642 km, 48.2° (Epoch: 14 December)

Event Time Altitude Azimuth Distance (km) Brightness Sun altitude
Rises 10:57:50 0° 194° (SSW) 2,818 ? 15.0°
Reaches altitude 10° 11:01:50 10° 158° (SSE) 1,925 ? 14.9°
Maximum altitude 11:02:59 11° 142° (SE) 1,866 ? 14.8°
Drops below altitude 10° 11:04:10 10° 127° (SE) 1,931 ? 14.8°
Sets 11:08:11 0° 91° (E) 2,846 ? 14.6°
